AirNav   ProFlight Series 2 Aviation Headset
 
 973 users online  

10PN One Meridian Plaza Heliport
Philadelphia, Pennsylvania, USA

GOING TO PHILADELPHIA?


FAA INFORMATION EFFECTIVE 18 JUNE 2020

Location

FAA Identifier: 10PN
Lat/Long: 39-55-50.4060N 075-14-38.6550W
39-55.840100N 075-14.644250W
39.9306683,-75.2440708
(estimated)
Elevation: 560 ft. / 171 m (estimated)
Variation: 11W (1985)
Time zone: UTC -4 (UTC -5 during Standard Time)
Zip code: 19050

Heliport Operations

Heliport use: Private use. Permission required prior to landing
Activation date: 04/1979
Control tower: no
ARTCC: NEW YORK CENTER
FSS: WILLIAMSPORT FLIGHT SERVICE STATION
Attendance: UNATNDD
Wind indicator: lighted
Segmented circle: no

Heliport Communications

WX ASOS at PHL (4 nm S): PHONE 215-492-9617
WX AWOS-3 at LOM (12 nm N): 118.925 (215-646-1068)
WX ASOS at PNE (14 nm NE): 121.15 (215-677-0146)
WX AWOS-3T at OQN (16 nm W): 121.4 ((610) 692-6190)
WX ASOS at VAY (18 nm E): 119.325 (609-267-1176)

Nearby radio navigation aids

VOR radial/distance  VOR name  Freq  Var
OODr019/17.9WOODSTOWN VORTAC112.8010W
MXEr097/19.7MODENA VORTAC113.2009W
DQOr058/22.6DUPONT VORTAC114.0010W
PTWr149/22.7POTTSTOWN VORTAC116.5009W
ARDr229/24.8YARDLEY VOR/DME108.2010W
VCNr342/26.8CEDAR LAKE VOR/DME115.2010W
GXUr273/30.1MC GUIRE VORTAC110.6012W
CYNr290/38.0COYLE VORTAC113.4010W
RBVr255/38.1ROBBINSVILLE VORTAC113.8010W

 
NDB name  Hdg/Dist  Freq  Var  ID
AMBLER183/11.927512WING .. -. --.
RAINBOW002/31.236311WRNB .-. -. -...

Heliport Services

Runway Information

Helipad H1

Dimensions: 200 x 75 ft. / 61 x 23 m
Surface: concrete, in fair condition
ROOFTOP.
Latitude: 39-55.840100N
Longitude: 075-14.644250W
Elevation: 560.0 ft.
Traffic pattern: leftleft
Markings: none, in fair condition

Heliport Ownership and Management from official FAA records

Ownership: Privately-owned
Owner: THE RUBIN ORGANIZATION, INC
2000 S BROAD ST-THE BELLVUE
PHILADELPHIA, PA 19102
Phone 215-875-0700
Manager: LOUIS J. LOMBARDI
1414 S PENN SQUARE
PHILADELPHIA, PA 19102
Phone 215-875-8350

Additional Remarks

HELI CLSD INDEFLY.
FOR CD CTC PHILADELPHIA APCH AT 800-354-9884.

Instrument Procedures

There are no published instrument procedures at 10PN.

Some nearby airports with instrument procedures:

KPHL - Philadelphia International Airport (4 nm S)
KLOM - Wings Field Airport (12 nm N)
7N7 - Spitfire Aerodrome (14 nm SW)
KPNE - Northeast Philadelphia Airport (14 nm NE)
KOQN - Brandywine Regional Airport (16 nm W)
19N - Camden County Airport (16 nm SE)
17N - Cross Keys Airport (17 nm SE)
KVAY - South Jersey Regional Airport (18 nm E)
N10 - Perkiomen Valley Airport (18 nm NW)
 
Loc | Ops | Rwys | IFR | FBO | Links
Com | Nav | Svcs | Stats | Notes
Area around 10PN (One Meridian Plaza Heliport)
 
Road maps at: MapQuest Bing Google
 
Aerial photo
No photo
 
Sectional chart

 
Airport distance calculator
Flying to One Meridian Plaza Heliport? Find the distance to fly.

From to 10PN

Sunrise and sunset
Times for 07-Jul-2020
 Local
(UTC-4)
 Zulu
(UTC)
Morning civil twilight05:0909:09
Sunrise05:4109:41
Sunset20:3100:31
Evening civil twilight21:0301:03

Current date and time
Zulu (UTC)  08-Jul-2020 00:44:08
Local (UTC-4)  07-Jul-2020 20:44:08
 
METAR
KPHL 
4nm S 
072354Z 20008KT 10SM FEW050 FEW150 SCT250 28/22 A3001 RMK AO2 SLP163 T02830217 10311 20283 53002
KLOM 
12nm N 
080035Z AUTO 18004KT 10SM CLR 26/22 A3003 RMK AO2 T02610224
KPNE 
14nm NE 
072354Z AUTO 18004KT 7SM -RA SCT025 BKN043 OVC065 26/24 A3003 RMK AO2 RAB04 SLP166 P0051 60051 T02560239 10311 20244 53002
KOQN 
16nm W 
080035Z AUTO 00000KT 10SM CLR 26/21 A3004 RMK AO2
KVAY 
19nm E 
ASOS 119.325 609-267-1176
072354Z AUTO 16004KT 10SM CLR 28/18 A3002 RMK AO2 SLP165 T02780183 10317 20278 53003
TAF
KPHL 
4nm S 
072053Z 0721/0824 19006KT P6SM BKN045 FM080100 VRB03KT P6SM BKN090 FM081100 VRB04KT P6SM BKN030 FM081400 VRB04KT P6SM BKN035
KPNE 
14nm NE 
071739Z 0718/0818 VRB04KT P6SM FEW035 FEW045 FM071900 16005KT P6SM VCTS BKN060CB FM080100 VRB03KT P6SM SCT060 FM081600 VRB04KT P6SM BKN035
NOTAMs
Click for the latest NOTAMs
NOTAMs are issued by the DoD/FAA and will open in a separate window not controlled by AirNav.

 

 
 

Would you like to see your business listed on this page?

 If your business provides an interesting product or service to pilots, flight crews, aircraft, or users of the One Meridian Plaza Heliport, you should consider listing it here.  To start the listing process, click on the button below
 
Add a business
 

Other Pages about One Meridian Plaza Heliport

Update a link
 
Copyright © AirNav, LLC. All rights reserved. Privacy Policy  Contact